Location: Portage (MI)
(42.2012°N, 85.5800°W)
Time: 02:49:30
(UTC-05:00)

Hubble Space Telescope - Visible Passes

Search period start: 22 January 2018 00:00
Search period end: 01 February 2018 00:00
Orbit: 537 x 541 km, 28.5° (Epoch: 21 January)

Date Brightness Start Highest point End Pass type
(mag) Time Alt. Az. Time Alt. Az. Time Alt. Az.
25 Jan 3.5 20:14:46 10° SSW 20:15:07 11° SSW 20:15:07 11° SSW visible
26 Jan 3.3 20:04:17 10° SSW 20:05:31 12° S 20:05:31 12° S visible
27 Jan 3.3 19:53:55 10° SSW 19:55:29 12° S 19:55:55 12° S visible
28 Jan 3.3 19:43:40 10° SSW 19:45:05 11° S 19:46:21 10° SSE visible
29 Jan 3.4 19:33:35 10° SSW 19:34:41 11° S 19:35:47 10° S visible
30 Jan 3.6 19:24:03 10° SSW 19:24:16 10° S 19:24:29 10° S visible
